Showing default

IRNSS 1G, 41469

Orbit data source: Space-Track

IRNSS 1G, 41469 is a payload satellite owned by ISRO (IN) in GEO that was launched on Thu, 28 Apr 2016 UTC via a PSLV-XL launch vehicle from the Sirharikota (SRI). Payload-class satellites include a variety of spacecraft equipped with specific instruments for various scientific and technological missions. These include communications satellites like Starlink; space stations such as the ISS; scientific satellites like the Hubble; Earth observation satellites from companies like Planet Labs, Umbra, and HawkEye 360; GPS; miniature CubeSats for education and research; and military/defense satellites.

Not visible in the next 10 days
Identifier
41469, 2016-027A
Orbit
GEO
Country
Flag of ININ / IND
Related business
Manufacturer
ISRO SAC/Banga
Mission
Partially operational Civil Navigation
Bus & Motor
I1K, ISRO LAM
Mass
1,425 kg wet, 598 kg dry
Launch date (UTC)
2016-04-28 (10 years ago)
Launch vehicle
PSLV-XL
Launch site
Sirharikota (SRI)
Object type
Payload
Rocket body
Debris
Shape & HBR
Box + 2 Pan, 5.0 m
Radar Cross Section
6.961 m², Large (>1 m²)

Expand to show TLE details & history
Last TLE update: 2 days ago

TLE from 2 days ago
0 IRNSS 1G
1 41469U 16027A   26171.48404867 -.00000341  00000-0  00000+0 0  9996
2 41469   5.2051  97.4014 0007659 358.4285 116.4925  1.00258765 37211
Epoch: 2026-06-20T11:37Z
TLE epoch observation values (Epoch: 2026-06-20T11:37:01.805Z)
Latitude
4.71315°
Longitude
129.55617°
Altitude
35,803.793 km
Speed
3.074 km/s
True Right ascension
14h 10m 02s
True Declination
4° 42' 30"
Sunlit
Object was in daylight at epoch
Visualization orbit readout
Latitude
Unknown
Longitude
Unknown
Altitude
Unknown
Speed
Unknown
Apparent Right ascension
Unknown
Apparent Declination
Unknown
Sunlit
N/A
Visualization observer readout
Local Sidereal Time
21:27:11
Azimuth
Unknown
Elevation
Unknown
Doppler factor
Unknown
Orbital elements
Apogee altitude
35,823.6 km
Perigee altitude
35,759.005 km
Semi-major axis
42,169.44 km
Eccentricity
0.00077
Inclination
5.2051°
RAAN
97.4014°
Arg. of periapsis
358.4285°
True anomaly
116.57102°
Mean anomaly
116.4925°
Eccentric anomaly
116.53176°
Mean motion
0.25064 °/min
Orbital period
1,436.34 mins
BSTAR
0
Loading maneuver chart data...
Computing Atmospheric mass density...
Loading historical data...
Loading historical data...
Loading historical data...
Loading historical data...
Loading historical data...
Loading historical data...
Loading historical data...
Other satellites on launch #27 in the year 2016 (2016-04-28 UTC)

Documentation

Showing up to 5 results
|